This is the latest recevied weather packets stored in our database for station/object WA9SDJ-13. If no packets are shown the sender has not sent any weather packets the latest 1 day(s).
| Time | Temp. | Humidity | Pressure | Rain* | Wind** | Luminosity | Snow |
|---|---|---|---|---|---|---|---|
| 1778101326 | 16.11° C | 53% | 1013.9 hPa | 0 mm | - | 730 W/m² | - |
| 1778101266 | 16.11° C | 49% | 1013.9 hPa | 0 mm | - | 735 W/m² | - |
| 1778101025 | 16.11° C | 51% | 1013.9 hPa | 0 mm | - | 784 W/m² | - |
| 1778100965 | 16.11° C | 49% | 1013.9 hPa | 0 mm | - | 789 W/m² | - |
| 1778100905 | 15.56° C | 51% | 1014 hPa | 0 mm | - | 798 W/m² | - |
| 1778100846 | 15.56° C | 52% | 1014 hPa | 0 mm | - | 811 W/m² | - |
| 1778100786 | 15.56° C | 52% | 1014 hPa | 0 mm | - | 819 W/m² | - |
| 1778100605 | 15.56° C | 49% | 1014.1 hPa | 0 mm | - | 842 W/m² | - |
| 1778100545 | 15.56° C | 51% | 1014.1 hPa | 0 mm | - | 840 W/m² | - |
| 1778100425 | 15.56° C | 49% | 1014.1 hPa | 0 mm | - | 842 W/m² | - |
| 1778100305 | 15.56° C | 53% | 1014.1 hPa | 0 mm | - | 234 W/m² | - |
| 1778100245 | 15.56° C | 54% | 1014 hPa | 0 mm | - | 211 W/m² | - |
| 1778099585 | 16.11° C | 49% | 1013.9 hPa | 0 mm | - | 723 W/m² | - |
| 1778099525 | 16.11° C | 51% | 1013.8 hPa | 0 mm | - | 877 W/m² | - |
| 1778099465 | 16.11° C | 55% | 1013.8 hPa | 0 mm | - | 867 W/m² | - |
| 1778099345 | 16.11° C | 50% | 1013.8 hPa | 0 mm | - | 863 W/m² | - |
| 1778098564 | 15° C | 54% | 1013.8 hPa | 0 mm | - | 480 W/m² | - |
| 1778097964 | 15° C | 57% | 1013.8 hPa | 0 mm | - | 485 W/m² | - |
| 1778097784 | 14.44° C | 57% | 1013.9 hPa | 0 mm | - | 1004 W/m² | - |
| 1778097724 | 14.44° C | 55% | 1013.8 hPa | 0 mm | - | 942 W/m² | - |
| 1778097364 | 14.44° C | 55% | 1014 hPa | 0 mm | - | 656 W/m² | - |
| 1778097244 | 14.44° C | 59% | 1014 hPa | 0 mm | - | 448 W/m² | - |
| 1778097184 | 14.44° C | 60% | 1014 hPa | 0 mm | - | 429 W/m² | - |
| 1778096644 | 14.44° C | 63% | 1014.1 hPa | 0 mm | - | 513 W/m² | - |
| 1778096584 | 14.44° C | 60% | 1014 hPa | 0 mm | - | 469 W/m² | - |
* Rain latest hour (hover to see other rain measurements)
** Current wind speed in m/s (hover to see current wind gust speed)